Regional Weather Roundup
Issued by NWS Northern Indiana

Home | Current Version | Previous Version | Graphics & Text | Print | Product List | Glossary On
Versions: 1 2 3 4 5 6 7 8 9 10 11 12 13 14 15 16 17 18 19 20 21 22 23 24 25 26 27 28 29 30 31 32 33 34 35 36 37 38 39 40 41 42 43 44 45 46 47 48 49 50
000
ASUS43 KIWX 181500
RWRIWX

KIWX WEATHER ROUNDUP
NATIONAL WEATHER SERVICE NORTHERN INDIANA
1100 AM EDT FRI APR 18 2014

NOTE: "FAIR" INDICATES FEW OR NO CLOUDS BELOW 12,000 FEET WITH NO
SIGNIFICANT WEATHER AND/OR OBSTRUCTIONS TO VISIBILITY.

* THESE STATIONS ARE NOT UNDER NWS QUALITY CONTROL. THEY ALSO MAY NOT
  REPORT WEATHER SUCH AS PRECIPITATION OR FOG.

INZ001>027-181600-
NORTHERN INDIANA

CITY           SKY/WX    TMP DP  RH WIND       PRES   REMARKS
GARY*          MOSUNNY   46  36  66 N14       30.35R
VALPARAISO     SUNNY     52  39  61 N6        30.31R
SOUTH BEND     SUNNY     56  41  57 NW5       30.31R
ELKHART*       SUNNY     55  41  58 W6        30.29
GOSHEN         SUNNY     57  43  59 W5        30.28S
ANGOLA*        SUNNY     57  45  62 W8        30.27S
FORT WAYNE     MOSUNNY   62  40  44 VRB7      30.29S
PERU/GRISSOM   PTSUNNY   58  44  58 VRB5      30.29S

$$
INZ028>050-181600-
CENTRAL INDIANA

CITY           SKY/WX    TMP DP  RH WIND       PRES   REMARKS
LAFAYETTE      SUNNY     58  40  51 CALM      30.30R
KOKOMO*        SUNNY     61  41  48 CALM      30.29
MUNCIE*        SUNNY     60  39  45 CALM      30.29S
INDIANAPOLIS   MOSUNNY   60  39  45 VRB5      30.29S

$$
MIZ043>046-050>051-056>058-064>065-071>073-077>080-181600-
SOUTHWEST LOWER MICHIGAN

CITY           SKY/WX    TMP DP  RH WIND       PRES   REMARKS
BATTLE CREEK   SUNNY     54  41  61 CALM      30.28S
BENTON HARBOR  SUNNY     44  37  76 NW7       30.31R
COLDWATER*     SUNNY     54  44  68 NW3       30.28R
HILLSDALE*     MOSUNNY   55  44  65 W5        30.26F
HOLLAND        PTSUNNY   53  39  59 SW5       30.30R
GRAND RAPIDS   MOSUNNY   55  38  52 VRB6      30.28S
KALAMAZOO      SUNNY     55  41  59 CALM      30.28S
STURGIS*       SUNNY     54  45  71 SW3       30.28R
THREE RIVERS*  FAIR      56  43  61 CALM      30.29R

$$
OHZ001>008-015>018-024>025-181600-
NORTHWEST OHIO

CITY           SKY/WX    TMP DP  RH WIND       PRES   REMARKS
DEFIANCE       CLOUDY    60  40  47 VRB3      30.28S
FINDLAY        MOSUNNY   60  41  49 E5        30.28S
TOLEDO EXPRESS CLOUDY    58  39  49 CALM      30.27S
TOLEDO METCALF MOSUNNY   60  41  49 CALM      30.29S
LIMA           MOSUNNY   60  41  49 VRB6      30.29R

$$
&&



USA.gov is the U.S. government's official web portal to all federal, state and local government web resources and services.